Weather History for KHMS - October, 2012

Change the Weather History Date:

Monday, October 8, 2012

  Actual Average (KMWH) Record (KMWH)
Temperature  
Mean Temperature 52 °F 52 °F  
Max Temperature 71 °F 67 °F - ()
Min Temperature 34 °F 38 °F - ()
Degree Days  
Heating Degree Days 13 12  
Month to date heating degree days 87  
Since 1 July heating degree days 237  
Cooling Degree Days 0 0  
Month to date cooling degree days 0  
Year to date cooling degree days 614  
Growing Degree Days 2 (Base 50)    
Moisture  
Dew Point 29 °F    
Average Humidity 46    
Maximum Humidity 83    
Minimum Humidity 23    
Precipitation  
Precipitation 0.00 in 0.01 in - ()
Month to date precipitation 0.12  
Year to date precipitation 5.94  
Sea Level Pressure  
Sea Level Pressure 29.95 in    
Wind  
Wind Speed 4 mph (ENE)    
Max Wind Speed 6 mph    
Max Gust Speed -    
Visibility 15 miles    
Events      
T = Trace of Precipitation, MM = Missing Value Source: NWS Daily Summary

Daily Weather History Graph

Daily Weather History Graph

Search for Another Location

Airport or City:

Trip Planner

Search our weather history database for the weather conditions in past years. The results will help you decide how hot, cold, wet, or windy it might be!

Date:

Astronomy

Oct. 08, 2012 Rise Set
Actual Time 7:07 AM PDT 6:23 PM PDT
Civil Twilight 6:36 AM PDT 6:53 PM PDT
Nautical Twilight 6:01 AM PDT 7:28 PM PDT
Astronomical Twilight 5:26 AM PDT 8:03 PM PDT
Moon No Moon Rise 2:37 PM PDT (10/8)
Length of Visible Light 12h 16m
Length of Day
11h 16m
Last Quarter, 45% of the Moon is Illuminated
Oct 8
Last Quarter
Oct 15
New
Oct 21
First Quarter
Oct 29
Full
Nov 6
Last Quarter

Hourly Weather History & Observations

Time (PDT) Temp. Windchill Dew Point Humidity Pressure Visibility Wind Dir Wind Speed Gust Speed Precip Events Conditions
12:50 AM 40.1 °F 38.0 °F 18.5 °F 42% 29.96 in 15.0 mi NNW 3.5 mph - N/A   Clear
1:50 AM 37.9 °F 35.5 °F 20.8 °F 50% 29.96 in 15.0 mi WSW 3.5 mph - N/A   Clear
3:50 AM 39.0 °F 35.7 °F 24.1 °F 55% 29.96 in 15.0 mi South 4.6 mph - N/A   Clear
4:50 AM 37.0 °F 33.3 °F 29.7 °F 75% 29.96 in 15.0 mi ESE 4.6 mph - N/A   Clear
5:50 AM 34.5 °F 30.4 °F 28.6 °F 79% 29.96 in 15.0 mi East 4.6 mph - N/A   Clear
6:50 AM 37.0 °F 33.3 °F 32.4 °F 83% 29.97 in 15.0 mi SE 4.6 mph - N/A   Clear
7:50 AM 37.6 °F 35.1 °F 31.8 °F 80% 29.97 in 15.0 mi ESE 3.5 mph - N/A   Partly Cloudy
8:50 AM 46.8 °F - 33.8 °F 61% 29.96 in 15.0 mi ENE 5.8 mph - N/A   Mostly Cloudy
9:50 AM 50.9 °F - 34.0 °F 52% 29.97 in 15.0 mi NNE 4.6 mph - N/A   Scattered Clouds
10:50 AM 54.5 °F - 33.3 °F 45% 29.96 in 15.0 mi NE 4.6 mph - N/A   Partly Cloudy
11:50 AM 61.2 °F - 31.8 °F 33% 29.96 in 15.0 mi East 4.6 mph - N/A   Scattered Clouds
12:50 PM 64.4 °F - 31.5 °F 29% 29.96 in 15.0 mi ENE 5.8 mph - N/A   Mostly Cloudy
1:50 PM 67.8 °F - 31.8 °F 26% 29.96 in 15.0 mi ENE 5.8 mph - N/A   Mostly Cloudy
2:50 PM 68.9 °F - 31.5 °F 25% 29.94 in 15.0 mi NNE 4.6 mph - N/A   Mostly Cloudy
3:50 PM 70.7 °F - 31.1 °F 23% 29.92 in 15.0 mi East 4.6 mph - N/A   Mostly Cloudy
4:50 PM 70.5 °F - 31.1 °F 23% 29.92 in 15.0 mi North 4.6 mph - N/A   Partly Cloudy
5:50 PM 65.7 °F - 29.7 °F 26% 29.88 in 15.0 mi ESE 3.5 mph - N/A   Scattered Clouds
6:50 PM 55.0 °F - 25.3 °F 32% 29.88 in 15.0 mi North 2.3 mph - N/A   Clear
10:50 PM 51.1 °F - 28.0 °F 41% 29.93 in 15.0 mi West 5.8 mph - N/A   Clear
11:50 PM 46.2 °F 44.1 °F 26.2 °F 46% 29.95 in 15.0 mi NW 4.6 mph - N/A   Clear